Weather History for Cando, ND

Change the Weather History Date:

Wednesday, October 24, 2012

  Actual Average (KDVL) Record (KDVL)
Temperature  
Mean Temperature 34 °F -  
Max Temperature 39 °F 50 °F 77 °F (1989)
Min Temperature 30 °F 31 °F 14 °F (1976)
Degree Days  
Heating Degree Days 30    
Moisture  
Dew Point 31 °F    
Average Humidity 90    
Maximum Humidity 100    
Minimum Humidity 75    
Precipitation  
Precipitation 0.00 in - - ()
Sea Level Pressure  
Sea Level Pressure 29.93 in    
Wind  
Wind Speed 15 mph (WNW)    
Max Wind Speed 22 mph    
Max Gust Speed 28 mph    
Visibility 10 miles    
Events      
Averages and records for this station are not official NWS values.
T = Trace of Precipitation, MM = Missing Value Source: NWS Daily Summary

Daily Weather History Graph

Daily Weather History Graph

Search for Another Location

Airport:

Trip Planner

Search our weather history database for the weather conditions in past years. The results will help you decide how hot, cold, wet, or windy it might be!

Date:

Astronomy

Oct. 24, 2012 Rise Set
Actual Time 8:11 AM CDT 6:29 PM CDT
Civil Twilight 7:39 AM CDT 7:02 PM CDT
Nautical Twilight 7:02 AM CDT 7:38 PM CDT
Astronomical Twilight 6:26 AM CDT 8:14 PM CDT
Moon 4:06 PM CDT (10/24) 2:45 AM CDT (10/24)
Length of Visible Light 11h 23m
Length of Day
10h 18m
Waxing Gibbous, 76% of the Moon is Illuminated
Oct 24
Waxing Gibbous
Oct 29
Full
Nov 6
Last Quarter
Nov 13
New
Nov 20
First Quarter

Hourly Weather History & Observations

Time (CDT) Temp. Windchill Dew Point Humidity Pressure Visibility Wind Dir Wind Speed Gust Speed Precip Events Conditions
12:15 AM 37.4 °F 28.5 °F 37.4 °F 100% 29.79 in 10.0 mi WNW 15.0 mph 24.2 mph N/A   Overcast
12:35 AM 39.2 °F 29.8 °F 37.4 °F 93% 29.80 in 10.0 mi WNW 18.4 mph 21.9 mph N/A   Overcast
12:55 AM 37.4 °F 28.9 °F 37.4 °F 100% 29.81 in 10.0 mi WNW 13.8 mph 21.9 mph N/A   Mostly Cloudy
1:15 AM 37.4 °F 28.2 °F 37.4 °F 100% 29.80 in 10.0 mi WNW 16.1 mph - N/A   Mostly Cloudy
1:35 AM 37.4 °F 28.9 °F 37.4 °F 100% 29.81 in 10.0 mi WNW 13.8 mph - N/A   Overcast
1:55 AM 37.4 °F 28.5 °F 37.4 °F 100% 29.82 in 10.0 mi West 15.0 mph - N/A   Overcast
2:15 AM 37.4 °F 29.3 °F 37.4 °F 100% 29.82 in 10.0 mi West 12.7 mph - N/A   Overcast
2:35 AM 37.4 °F 29.3 °F 35.6 °F 93% 29.82 in 10.0 mi WNW 12.7 mph - N/A   Overcast
2:55 AM 37.4 °F 28.9 °F 35.6 °F 93% 29.82 in 10.0 mi West 13.8 mph - N/A   Overcast
3:15 AM 37.4 °F 28.9 °F 35.6 °F 93% 29.83 in 10.0 mi West 13.8 mph - N/A   Overcast
3:35 AM 35.6 °F 27.1 °F 35.6 °F 100% 29.84 in 10.0 mi West 12.7 mph - N/A   Overcast
3:55 AM 35.6 °F 25.5 °F 35.6 °F 100% 29.84 in 10.0 mi WNW 17.3 mph - N/A   Overcast
4:15 AM 35.6 °F 26.6 °F 35.6 °F 100% 29.85 in 10.0 mi West 13.8 mph 18.4 mph N/A   Overcast
4:35 AM 35.6 °F 26.6 °F 35.6 °F 100% 29.86 in 10.0 mi WNW 13.8 mph - N/A   Overcast
4:55 AM 35.6 °F 25.9 °F 33.8 °F 93% 29.86 in 10.0 mi WNW 16.1 mph - N/A   Overcast
5:15 AM 35.6 °F 27.1 °F 33.8 °F 93% 29.87 in 10.0 mi WNW 12.7 mph 20.7 mph N/A   Overcast
5:35 AM 35.6 °F 26.2 °F 33.8 °F 93% 29.88 in 10.0 mi NW 15.0 mph 23.0 mph N/A   Overcast
5:55 AM 35.6 °F 26.6 °F 33.8 °F 93% 29.89 in 10.0 mi WNW 13.8 mph - N/A   Overcast
6:15 AM 35.6 °F 27.5 °F 32.0 °F 87% 29.89 in 10.0 mi WNW 11.5 mph - N/A   Overcast
6:35 AM 35.6 °F 26.6 °F 32.0 °F 87% 29.89 in 10.0 mi WNW 13.8 mph - N/A   Overcast
6:55 AM 35.6 °F 26.2 °F 32.0 °F 87% 29.90 in 10.0 mi WNW 15.0 mph 21.9 mph N/A   Overcast
7:15 AM 33.8 °F 23.5 °F 32.0 °F 93% 29.91 in 10.0 mi WNW 16.1 mph - N/A   Overcast
7:35 AM 32.0 °F 20.1 °F 30.2 °F 93% 29.92 in 10.0 mi WNW 19.6 mph 27.6 mph N/A   Overcast
7:55 AM 32.0 °F 20.8 °F 32.0 °F 100% 29.92 in 10.0 mi WNW 17.3 mph 23.0 mph N/A   Overcast
8:15 AM 32.0 °F 20.8 °F 30.2 °F 93% 29.92 in 10.0 mi NW 17.3 mph - N/A   Overcast
8:55 AM 32.0 °F 23.0 °F 32.0 °F 100% 29.93 in 10.0 mi WNW 11.5 mph 17.3 mph N/A   Overcast
9:15 AM 32.0 °F 23.0 °F 32.0 °F 100% 29.93 in 10.0 mi WNW 11.5 mph - N/A   Overcast
9:35 AM 32.0 °F 22.5 °F 32.0 °F 100% 29.94 in 10.0 mi West 12.7 mph - N/A   Overcast
9:55 AM 32.0 °F 21.6 °F 30.2 °F 93% 29.95 in 10.0 mi West 15.0 mph 20.7 mph N/A   Overcast
10:15 AM 32.0 °F 21.2 °F 30.2 °F 93% 29.95 in 10.0 mi West 16.1 mph 20.7 mph N/A   Overcast
10:35 AM 32.0 °F 22.1 °F 30.2 °F 93% 29.95 in 10.0 mi WNW 13.8 mph - N/A   Overcast
11:15 AM 32.0 °F 22.1 °F 30.2 °F 93% 29.96 in 10.0 mi West 13.8 mph - N/A   Overcast
11:35 AM 32.0 °F 21.6 °F 30.2 °F 93% 29.96 in 10.0 mi West 15.0 mph 20.7 mph N/A   Overcast
11:55 AM 33.8 °F 22.8 °F 30.2 °F 87% 29.96 in 10.0 mi WNW 18.4 mph - N/A   Overcast
12:15 PM 33.8 °F 22.8 °F 30.2 °F 87% 29.96 in 10.0 mi West 18.4 mph - N/A   Overcast
12:35 PM 33.8 °F 23.9 °F 30.2 °F 87% 29.97 in 10.0 mi West 15.0 mph - N/A   Overcast
12:55 PM 33.8 °F 23.5 °F 30.2 °F 87% 29.97 in 10.0 mi West 16.1 mph 23.0 mph N/A   Overcast
1:35 PM 32.0 °F 21.2 °F 28.4 °F 87% 29.96 in 10.0 mi West 16.1 mph - N/A   Overcast
1:55 PM 33.8 °F 22.8 °F 28.4 °F 81% 29.96 in 10.0 mi WNW 18.4 mph - N/A   Overcast
2:15 PM 33.8 °F 23.5 °F 28.4 °F 81% 29.97 in 10.0 mi WNW 16.1 mph - N/A   Overcast
2:35 PM 33.8 °F 23.9 °F 28.4 °F 81% 29.96 in 10.0 mi West 15.0 mph 20.7 mph N/A   Overcast
2:55 PM 33.8 °F 22.2 °F 28.4 °F 81% 29.96 in 10.0 mi WNW 20.7 mph - N/A   Overcast
3:15 PM 33.8 °F 22.8 °F 28.4 °F 81% 29.96 in 10.0 mi West 18.4 mph 23.0 mph N/A   Overcast
3:35 PM 35.6 °F 25.2 °F 28.4 °F 75% 29.95 in 10.0 mi West 18.4 mph 21.9 mph N/A   Overcast
3:55 PM 33.8 °F 23.2 °F 28.4 °F 81% 29.96 in 10.0 mi WNW 17.3 mph - N/A   Mostly Cloudy
4:15 PM 35.6 °F 24.8 °F 28.4 °F 75% 29.96 in 10.0 mi WNW 19.6 mph 25.3 mph N/A   Overcast
4:55 PM 33.8 °F 23.9 °F 28.4 °F 81% 29.96 in 10.0 mi WNW 15.0 mph - N/A   Overcast
5:35 PM 32.0 °F 21.6 °F 28.4 °F 87% 29.98 in 10.0 mi WNW 15.0 mph - N/A   Overcast
5:55 PM 32.0 °F 21.6 °F 28.4 °F 87% 29.98 in 10.0 mi WNW 15.0 mph 20.7 mph N/A   Overcast
6:15 PM 32.0 °F 22.1 °F 28.4 °F 87% 29.99 in 10.0 mi WNW 13.8 mph - N/A   Overcast
6:35 PM 32.0 °F 21.6 °F 26.6 °F 80% 29.98 in 10.0 mi WNW 15.0 mph - N/A   Overcast
6:55 PM 32.0 °F 21.6 °F 26.6 °F 80% 29.99 in 10.0 mi WNW 15.0 mph - N/A   Overcast
7:35 PM 32.0 °F 22.5 °F 26.6 °F 80% 30.00 in 10.0 mi WNW 12.7 mph - N/A   Mostly Cloudy
8:15 PM 32.0 °F 25.6 °F 26.6 °F 80% 30.01 in 10.0 mi West 6.9 mph - N/A   Clear
8:35 PM 30.2 °F 23.4 °F 26.6 °F 86% 30.01 in 10.0 mi West 6.9 mph - N/A   Clear
8:55 PM 30.2 °F 23.4 °F 26.6 °F 86% 30.00 in 10.0 mi West 6.9 mph - N/A   Partly Cloudy
9:15 PM 30.2 °F 22.6 °F 26.6 °F 86% 30.01 in 10.0 mi West 8.1 mph - N/A   Partly Cloudy
9:55 PM 30.2 °F 20.8 °F 28.4 °F 93% 30.00 in 10.0 mi West 11.5 mph - N/A   Clear
10:15 PM 30.2 °F 20.2 °F 28.4 °F 93% 29.99 in 10.0 mi WNW 12.7 mph - N/A   Scattered Clouds
10:35 PM 32.0 °F 22.1 °F 26.6 °F 80% 30.00 in 10.0 mi WNW 13.8 mph 19.6 mph N/A   Mostly Cloudy
11:15 PM 32.0 °F 19.5 °F 26.6 °F 80% 30.00 in 10.0 mi NW 21.9 mph 25.3 mph N/A   Overcast
11:35 PM 32.0 °F 21.2 °F 26.6 °F 80% 30.00 in 10.0 mi WNW 16.1 mph 25.3 mph N/A   Overcast
11:55 PM 32.0 °F 22.5 °F 26.6 °F 80% 29.98 in 10.0 mi WNW 12.7 mph - N/A   Scattered Clouds